Погода в Цагараде

Греция     39°22′58″N   23°10′38″E
темп.,
°C
ветер,
м/с
пор.,
м/с
влажн.,
%
обл.,
%
осадки,
мм/ч
давл.,
гПа
погр.,
м
29 июля, чт
чт2900:00+30юз11560 0.0 101511
03:00+29юв12520 0.0 101411
06:00+29зсз33550 0.0 101317
09:00+28сз33640 0.0 101440
12:00+28ссз33680 0.0 101491
15:00+28юв11570 0.0 1013106
18:00+29ююв56630 0.0 1010107
21:00+29ююв68640 0.0 101081
30 июля, пт
пт3000:00+31ююз45494 0.0 101022
03:00+30зюз12530 0.0 101012
06:00+28зсз12710 0.0 101031
09:00+28ссз44700 0.0 101179
12:00+28с32690 0.0 101171
15:00+29юв34610 0.0 1009118
18:00+28ююв810670 0.0 1007179
21:00+29ю68604 0.0 100789
31 июля, сб
сб3100:00+29вюв34661 0.0 100752
03:00+28ссв33720 0.0 100748
06:00+27сз34720 0.0 1007100
09:00+27ссз44690 0.0 1008106
12:00+28ссз33680 0.0 100993
15:00+28в01630 0.0 100866
18:00+28ююв55660 0.0 1006140
21:00+28ююв33680 0.0 100636
1 августа, вс
вс100:00+28ююв11690 0.0 100611
03:00+27зсз11740 0.0 100836
06:00+27сз44710 0.0 100893
09:00+27сз44720 0.0 1010117
12:00+27ссз34720 0.0 1010118
15:00+28юв22630 0.0 100990
18:00+28ююв56690 0.0 1008154
21:00+29ююв68660 0.0 100782
2 августа, пн
пн200:00+29ююв22620 0.0 100829
03:00+28вюв12650 0.0 100915
06:00+28зсз33660 0.0 100934
09:00+28сз34690 0.0 101076
12:00+28вюв22620 0.0 100998
15:00+28юв66660 0.0 1007166
18:00+28ююв45730 0.0 1006109
21:00+31ююв45570 0.0 100541